Overview Statistics Trail Chart Weather Telemetry Raw packets
 

This is the latest recevied weather packets stored in our database for station/object K5FEP. If no packets are shown the sender has not sent any weather packets the latest 10 day(s).

<< 15 16 17 18 19 20 21 >>
Time Temp. Humidity Pressure Rain* Wind** Luminosity Snow
1788533697 33.33° C 54% 1015 hPa 0 mm - 695 W/m² -
1788533393 33.89° C 54% 1015.3 hPa 0 mm - 678 W/m² -
1788533088 33.33° C 54% 1015.1 hPa 0 mm - 664 W/m² -
1788532784 33.89° C 55% 1015.3 hPa 0 mm - 651 W/m² -
1788532480 33.33° C 55% 1015.3 hPa 0 mm - 634 W/m² -
1788532177 33.33° C 57% 1015.3 hPa 0 mm - 617 W/m² -
1788531873 32.78° C 57% 1015.2 hPa 0 mm - 598 W/m² -
1788531573 32.78° C 59% 1015.4 hPa 0 mm - 584 W/m² -
1788531267 32.22° C 59% 1015.5 hPa 0 mm - 569 W/m² -
1788530964 32.22° C 60% 1015.1 hPa 0 mm - 554 W/m² -
1788530664 31.67° C 60% 1015.5 hPa 0 mm - 534 W/m² -
1788530363 31.67° C 62% 1015.2 hPa 0 mm - 518 W/m² -
1788530063 31.67° C 62% 1015.2 hPa 0 mm - 501 W/m² -
1788529760 30.56° C 64% 1015.3 hPa 0 mm - 480 W/m² -
1788529459 30.56° C 65% 1015.5 hPa 0 mm - 460 W/m² -
1788529165 30° C 66% 1015.3 hPa 0 mm - 444 W/m² -
1788528854 30° C 66% 1015.2 hPa 0 mm - 426 W/m² -
1788528550 30° C 67% 1015.4 hPa 0 mm - 408 W/m² -
1788528245 30° C 68% 1015.2 hPa 0 mm - 386 W/m² -
1788527944 29.44° C 68% 1015.3 hPa 0 mm - 364 W/m² -
1788527640 28.89° C 70% 1015.5 hPa 0 mm - 345 W/m² -
1788527335 28.89° C 70% 1015.5 hPa 0 mm - 324 W/m² -
1788527034 28.89° C 70% 1015.5 hPa 0 mm - 306 W/m² -
1788526729 28.89° C 72% 1015.5 hPa 0 mm - 286 W/m² -
1788526426 28.33° C 72% 1015.5 hPa 0 mm - 267 W/m² -

* Rain latest hour (hover to see other rain measurements)
** Current wind speed in m/s (hover to see current wind gust speed)